Zurück zum Katalog

CZ-3B DEB

LostGTO
NORAD 40190·DEBRIS·🇨🇳 China

Gestartet Dec 19, 2011 von Xichang Satellite Launch Center

Loading…

TLE

VeraltetSource: Space-Track

Epoche: May 2, 2015, 14:25 UTC

1 40190U 11077P   15122.60092872  .00060508  00000-0  11350+0 0  9993
2 40190  26.6225 316.3553 7222417  88.4612 345.3701  2.29075198 16024

Verfolge CZ-3B DEB in Echtzeit mit AllMySat

Download on the App Store